| time (UTC) | temp F | wind direction | speed MPH | gust MPH | rain 1hr in | rain 24hr in | rain mn in | humidity % | barometer mb |
| 20260505111740 | 39 | 313 | 4.0 | 6.0 | 0.00 | 0.00 | 0.00 | 68 | 1017.5 |
| 20260505111237 | 40 | 2 | 3.0 | 3.0 | 0.00 | 0.00 | 0.00 | 66 | 1017.6 |
| 20260505110732 | 40 | 24 | 3.0 | 4.0 | 0.00 | 0.00 | 0.00 | 66 | 1017.5 |
| 20260505110231 | 40 | 333 | 7.0 | 9.0 | 0.00 | 0.00 | 0.00 | 65 | 1017.4 |
| 20260505102206 | 39 | 289 | 2.0 | 3.0 | 0.00 | 0.00 | 0.00 | 57 | 1017.4 |
| 20260505101705 | 39 | 284 | 4.0 | 4.0 | 0.00 | 0.00 | 0.00 | 55 | 1017.4 |
| 20260505101201 | 40 | 278 | 1.0 | 1.0 | 0.00 | 0.00 | 0.00 | 55 | 1017.2 |
| 20260505100656 | 39 | 278 | 3.0 | 3.0 | 0.00 | 0.00 | 0.00 | 54 | 1017.0 |
| 20260505100154 | 39 | 287 | 3.0 | 3.0 | 0.00 | 0.00 | 0.00 | 54 | 1017.2 |
| 20260505095649 | 39 | 295 | 4.0 | 4.0 | 0.00 | 0.00 | 0.00 | 53 | 1017.2 |
| 20260505095147 | 39 | 264 | 1.0 | 2.0 | 0.00 | 0.00 | 0.00 | 54 | 1017.0 |
| 20260505094643 | 39 | 261 | 1.0 | 1.0 | 0.00 | 0.00 | 0.00 | 54 | 1016.9 |
| 20260505094139 | 39 | 269 | 1.0 | 1.0 | 0.00 | 0.00 | 0.00 | 54 | 1016.7 |
| 20260505093636 | 38 | 258 | 2.0 | 2.0 | 0.00 | 0.00 | 0.00 | 54 | 1016.8 |
| 20260505093133 | 37 | 233 | 1.0 | 1.0 | 0.00 | 0.00 | 0.00 | 58 | 1016.8 |
| 20260505092630 | 37 | 234 | 2.0 | 2.0 | 0.00 | 0.00 | 0.00 | 59 | 1016.8 |
| 20260505092129 | 37 | 234 | 2.0 | 3.0 | 0.00 | 0.00 | 0.00 | 55 | 1016.8 |
| 20260505091625 | 38 | 237 | 2.0 | 2.0 | 0.00 | 0.00 | 0.00 | 55 | 1016.9 |
| 20260505091123 | 37 | 235 | 3.0 | 3.0 | 0.00 | 0.00 | 0.00 | 55 | 1016.7 |
| 20260505090621 | 37 | 220 | 4.0 | 4.0 | 0.00 | 0.00 | 0.00 | 57 | 1017.1 |
| 20260505090119 | 37 | 222 | 2.0 | 2.0 | 0.00 | 0.00 | 0.00 | 58 | 1016.7 |
| 20260505085616 | 37 | 223 | 4.0 | 6.0 | 0.00 | 0.00 | 0.00 | 58 | 1016.8 |
| 20260505085114 | 37 | 232 | 2.0 | 3.0 | 0.00 | 0.00 | 0.00 | 59 | 1016.7 |
| 20260505084612 | 37 | 232 | 3.0 | 4.0 | 0.00 | 0.00 | 0.00 | 59 | 1016.8 |
| 20260505084110 | 37 | 241 | 1.0 | 2.0 | 0.00 | 0.00 | 0.00 | 58 | 1016.8 |
| 20260505083607 | 37 | 242 | 3.0 | 4.0 | 0.00 | 0.00 | 0.00 | 57 | 1016.9 |
| 20260505083103 | 37 | 233 | 3.0 | 3.0 | 0.00 | 0.00 | 0.00 | 58 | 1016.8 |
| 20260505082559 | 37 | 233 | 2.0 | 2.0 | 0.00 | 0.00 | 0.00 | 59 | 1016.6 |
| 20260505082056 | 37 | 239 | 4.0 | 4.0 | 0.00 | 0.00 | 0.00 | 61 | 1016.8 |
| 20260505081553 | 37 | 261 | 3.0 | 3.0 | 0.00 | 0.00 | 0.00 | 61 | 1016.8 |
| 20260505081050 | 37 | 263 | 2.0 | 3.0 | 0.00 | 0.00 | 0.00 | 63 | 1016.9 |
| 20260505080546 | 37 | 269 | 1.0 | 2.0 | 0.00 | 0.00 | 0.00 | 58 | 1017.0 |
| 20260505080043 | 37 | 269 | 1.0 | 1.0 | 0.00 | 0.00 | 0.00 | 59 | 1017.0 |
| 20260505075538 | 37 | 270 | 2.0 | 2.0 | 0.00 | 0.00 | 0.00 | 62 | 1017.1 |
| 20260505075036 | 37 | 274 | 3.0 | 3.0 | 0.00 | 0.00 | 0.00 | 58 | 1017.2 |
| 20260505074533 | 37 | 272 | 2.0 | 2.0 | 0.00 | 0.00 | 0.00 | 61 | 1017.0 |
| 20260505074030 | 37 | 281 | 1.0 | 1.0 | 0.00 | 0.00 | 0.00 | 58 | 1016.9 |
| 20260505073527 | 37 | 281 | 0.0 | 0.0 | 0.00 | 0.00 | 0.00 | 59 | 1017.1 |
| 20260505073026 | 38 | 281 | 1.0 | 1.0 | 0.00 | 0.00 | 0.00 | 56 | 1016.8 |
| 20260505072521 | 37 | 281 | 0.0 | 1.0 | 0.00 | 0.00 | 0.00 | 57 | 1017.0 |
| 20260505072017 | 37 | 281 | 1.0 | 1.0 | 0.00 | 0.00 | 0.00 | 57 | 1016.9 |
| 20260505071513 | 37 | 281 | 1.0 | 1.0 | 0.00 | 0.00 | 0.00 | 59 | 1017.0 |
| 20260505071011 | 37 | 282 | 0.0 | 0.0 | 0.00 | 0.00 | 0.00 | 59 | 1017.2 |
| 20260505070508 | 38 | 282 | 1.0 | 1.0 | 0.00 | 0.00 | 0.00 | 60 | 1016.7 |
| 20260505070004 | 38 | 282 | 0.0 | 0.0 | 0.00 | 0.00 | 0.00 | 56 | 1017.0 |
| 20260505065500 | 37 | 283 | 2.0 | 2.0 | 0.00 | 0.00 | 0.00 | 54 | 1017.0 |
| 20260505064957 | 38 | 287 | 2.0 | 2.0 | 0.00 | 0.00 | 0.00 | 58 | 1016.9 |
| 20260505064453 | 38 | 318 | 2.0 | 2.0 | 0.00 | 0.00 | 0.00 | 56 | 1016.8 |
| 20260505063952 | 38 | 339 | 1.0 | 1.0 | 0.00 | 0.00 | 0.00 | 54 | 1016.7 |
| 20260505063448 | 37 | 345 | 0.0 | 1.0 | 0.00 | 0.00 | 0.00 | 55 | 1016.5 |
| 20260505062945 | 38 | 345 | 0.0 | 0.0 | 0.00 | 0.00 | 0.00 | 61 | 1016.6 |
| 20260505062442 | 38 | 345 | 0.0 | 0.0 | 0.00 | 0.00 | 0.00 | 54 | 1016.4 |
| 20260505061939 | 37 | 345 | 0.0 | 0.0 | 0.00 | 0.00 | 0.00 | 54 | 1016.3 |
| 20260505061437 | 38 | 346 | 0.0 | 0.0 | 0.00 | 0.00 | 0.00 | 54 | 1016.1 |
| 20260505060934 | 38 | 346 | 0.0 | 1.0 | 0.00 | 0.00 | 0.00 | 53 | 1016.4 |
| 20260505060431 | 38 | 348 | 0.0 | 0.0 | 0.00 | 0.00 | 0.00 | 51 | 1016.1 |
| 20260505055927 | 39 | 349 | 2.0 | 2.0 | 0.00 | 0.00 | 0.00 | 50 | 1016.3 |
| 20260505055423 | 39 | 350 | 0.0 | 0.0 | 0.00 | 0.00 | 0.00 | 51 | 1016.3 |
| 20260505054920 | 40 | 2 | 0.0 | 0.0 | 0.00 | 0.00 | 0.00 | 54 | 1016.3 |
| 20260505054418 | 40 | 12 | 1.0 | 1.0 | 0.00 | 0.00 | 0.00 | 50 | 1016.4 |
| 20260505053916 | 40 | 34 | 2.0 | 3.0 | 0.00 | 0.00 | 0.00 | 49 | 1016.3 |
| 20260505053412 | 41 | 44 | 2.0 | 2.0 | 0.00 | 0.00 | 0.00 | 50 | 1016.3 |
| 20260505052909 | 41 | 27 | 2.0 | 2.0 | 0.00 | 0.00 | 0.00 | 48 | 1016.0 |
| 20260505052406 | 41 | 31 | 3.0 | 3.0 | 0.00 | 0.00 | 0.00 | 48 | 1016.1 |
| 20260505051903 | 42 | 36 | 4.0 | 4.0 | 0.00 | 0.00 | 0.00 | 48 | 1016.1 |
| 20260505051401 | 42 | 30 | 3.0 | 4.0 | 0.00 | 0.00 | 0.00 | 47 | 1016.4 |
| 20260505050858 | 42 | 15 | 3.0 | 3.0 | 0.00 | 0.00 | 0.00 | 47 | 1016.3 |
| 20260505050357 | 42 | 0 | 4.0 | 4.0 | 0.00 | 0.00 | 0.00 | 46 | 1016.4 |
| 20260505041324 | 40 | 17 | 3.0 | 3.0 | 0.00 | 0.00 | 0.00 | 46 | 1015.9 |
| 20260505040821 | 39 | 1 | 3.0 | 3.0 | 0.00 | 0.00 | 0.00 | 47 | 1016.0 |
| 20260505040319 | 40 | 4 | 2.0 | 2.0 | 0.00 | 0.00 | 0.00 | 47 | 1015.9 |
| 20260505035815 | 40 | 15 | 2.0 | 2.0 | 0.00 | 0.00 | 0.00 | 46 | 1015.7 |
| 20260505035311 | 42 | 33 | 3.0 | 3.0 | 0.00 | 0.00 | 0.00 | 44 | 1015.7 |
| 20260505034809 | 41 | 24 | 2.0 | 3.0 | 0.00 | 0.00 | 0.00 | 44 | 1015.5 |
| 20260505034305 | 42 | 33 | 4.0 | 4.0 | 0.00 | 0.00 | 0.00 | 43 | 1015.7 |
| 20260505033802 | 42 | 27 | 4.0 | 4.0 | 0.00 | 0.00 | 0.00 | 42 | 1015.6 |
| 20260505033259 | 42 | 49 | 5.0 | 6.0 | 0.00 | 0.00 | 0.00 | 41 | 1015.5 |
| 20260505032757 | 43 | 42 | 4.0 | 6.0 | 0.00 | 0.00 | 0.00 | 40 | 1015.4 |
| 20260505032253 | 44 | 36 | 4.0 | 4.0 | 0.00 | 0.00 | 0.00 | 39 | 1015.3 |
| 20260505031750 | 45 | 33 | 4.0 | 4.0 | 0.00 | 0.00 | 0.00 | 37 | 1014.9 |
| 20260505031246 | 45 | 43 | 8.0 | 9.0 | 0.00 | 0.00 | 0.00 | 36 | 1015.1 |
| 20260505030744 | 45 | 16 | 5.0 | 6.0 | 0.00 | 0.00 | 0.00 | 34 | 1014.7 |
| 20260505030240 | 44 | 18 | 4.0 | 4.0 | 0.00 | 0.00 | 0.00 | 32 | 1014.7 |
| 20260505025735 | 46 | 2 | 3.0 | 3.0 | 0.00 | 0.00 | 0.00 | 31 | 1014.7 |
| 20260505025234 | 46 | 11 | 4.0 | 4.0 | 0.00 | 0.00 | 0.00 | 30 | 1014.7 |
| 20260505024732 | 46 | 8 | 3.0 | 3.0 | 0.00 | 0.00 | 0.00 | 30 | 1014.6 |
| 20260505024229 | 47 | 6 | 4.0 | 4.0 | 0.00 | 0.00 | 0.00 | 29 | 1014.3 |
| 20260505023726 | 48 | 20 | 6.0 | 7.0 | 0.00 | 0.00 | 0.00 | 28 | 1014.2 |
| 20260505023223 | 48 | 358 | 3.0 | 3.0 | 0.00 | 0.00 | 0.00 | 27 | 1014.4 |
| 20260505022721 | 50 | 16 | 3.0 | 3.0 | 0.00 | 0.00 | 0.00 | 26 | 1014.2 |
| 20260505022217 | 50 | 353 | 5.0 | 6.0 | 0.00 | 0.00 | 0.00 | 26 | 1014.3 |
| 20260505021714 | 50 | 350 | 4.0 | 6.0 | 0.00 | 0.00 | 0.00 | 25 | 1014.0 |
| 20260505021211 | 51 | 335 | 5.0 | 6.0 | 0.00 | 0.00 | 0.00 | 25 | 1014.1 |
| 20260505020707 | 51 | 329 | 4.0 | 6.0 | 0.00 | 0.00 | 0.00 | 25 | 1013.8 |
| 20260505020202 | 52 | 331 | 5.0 | 6.0 | 0.00 | 0.00 | 0.00 | 25 | 1014.0 |
| 20260505015700 | 53 | 338 | 6.0 | 8.0 | 0.00 | 0.00 | 0.00 | 24 | 1014.1 |
| 20260505015156 | 53 | 356 | 6.0 | 7.0 | 0.00 | 0.00 | 0.00 | 24 | 1013.8 |
| 20260505014654 | 54 | 352 | 12.0 | 14.0 | 0.00 | 0.00 | 0.00 | 23 | 1013.8 |
| 20260505014151 | 54 | 325 | 7.0 | 8.0 | 0.00 | 0.00 | 0.00 | 23 | 1013.8 |
| 20260505013648 | 54 | 325 | 12.0 | 16.0 | 0.00 | 0.00 | 0.00 | 23 | 1013.8 |
| 20260505013145 | 54 | 349 | 10.0 | 11.0 | 0.00 | 0.00 | 0.00 | 23 | 1013.7 |
| 20260505012643 | 54 | 316 | 10.0 | 10.0 | 0.00 | 0.00 | 0.00 | 24 | 1013.7 |
| 20260505012140 | 55 | 310 | 3.0 | 4.0 | 0.00 | 0.00 | 0.00 | 24 | 1013.8 |
| 20260505011636 | 55 | 308 | 6.0 | 8.0 | 0.00 | 0.00 | 0.00 | 24 | 1013.6 |
| 20260505011133 | 55 | 316 | 9.0 | 11.0 | 0.00 | 0.00 | 0.00 | 23 | 1013.5 |
| 20260505010633 | 55 | 339 | 10.0 | 13.0 | 0.00 | 0.00 | 0.00 | 24 | 1013.8 |
| 20260505010130 | 55 | 332 | 9.0 | 10.0 | 0.00 | 0.00 | 0.00 | 23 | 1013.8 |
| 20260505005626 | 55 | 350 | 11.0 | 13.0 | 0.00 | 0.00 | 0.00 | 23 | 1014.1 |
| 20260505005124 | 55 | 6 | 10.0 | 13.0 | 0.00 | 0.00 | 0.00 | 23 | 1013.7 |
| 20260505004621 | 55 | 1 | 10.0 | 13.0 | 0.00 | 0.00 | 0.00 | 23 | 1014.0 |
| 20260505004117 | 55 | 323 | 14.0 | 17.0 | 0.00 | 0.00 | 0.00 | 23 | 1014.2 |
| 20260505003615 | 55 | 337 | 8.0 | 9.0 | 0.00 | 0.00 | 0.00 | 24 | 1013.8 |
| 20260505003112 | 55 | 6 | 10.0 | 11.0 | 0.00 | 0.00 | 0.00 | 24 | 1013.8 |
| 20260505002608 | 56 | 349 | 5.0 | 8.0 | 0.00 | 0.00 | 0.00 | 25 | 1014.0 |
| 20260505002107 | 56 | 2 | 8.0 | 9.0 | 0.00 | 0.00 | 0.00 | 26 | 1014.1 |
| 20260505001603 | 56 | 335 | 7.0 | 9.0 | 0.00 | 0.00 | 0.00 | 26 | 1013.8 |
| 20260505001101 | 55 | 339 | 5.0 | 9.0 | 0.00 | 0.00 | 0.00 | 26 | 1014.1 |
| 20260505000558 | 54 | 346 | 11.0 | 14.0 | 0.00 | 0.00 | 0.00 | 26 | 1014.1 |
| 20260505000055 | 55 | 355 | 13.0 | 16.0 | 0.00 | 0.00 | 0.00 | 27 | 1014.2 |
| 20260504235552 | 56 | 351 | 11.0 | 14.0 | 0.00 | 0.00 | 0.00 | 26 | 1014.1 |
| 20260504235049 | 56 | 359 | 16.0 | 17.0 | 0.00 | 0.00 | 0.00 | 26 | 1014.0 |
| 20260504234546 | 56 | 6 | 8.0 | 11.0 | 0.00 | 0.00 | 0.00 | 28 | 1014.2 |
| 20260504234043 | 55 | 342 | 12.0 | 15.0 | 0.00 | 0.00 | 0.00 | 28 | 1014.2 |
| 20260504233538 | 56 | 326 | 11.0 | 13.0 | 0.00 | 0.00 | 0.00 | 29 | 1014.1 |
| 20260504233035 | 57 | 323 | 12.0 | 15.0 | 0.00 | 0.00 | 0.00 | 29 | 1014.1 |
| 20260504232532 | 56 | 290 | 8.0 | 9.0 | 0.00 | 0.00 | 0.00 | 30 | 1014.1 |
| 20260504232030 | 55 | 306 | 7.0 | 8.0 | 0.00 | 0.00 | 0.00 | 30 | 1014.2 |
| 20260504231526 | 55 | 342 | 9.0 | 11.0 | 0.00 | 0.00 | 0.00 | 30 | 1014.3 |
| 20260504231022 | 55 | 321 | 9.0 | 11.0 | 0.00 | 0.00 | 0.00 | 31 | 1014.1 |
| 20260504230519 | 55 | 311 | 11.0 | 16.0 | 0.00 | 0.00 | 0.00 | 31 | 1014.1 |
| 20260504230018 | 55 | 347 | 9.0 | 10.0 | 0.00 | 0.00 | 0.00 | 32 | 1014.2 |
| 20260504225514 | 55 | 325 | 9.0 | 10.0 | 0.00 | 0.00 | 0.00 | 32 | 1014.4 |
| 20260504225011 | 54 | 330 | 12.0 | 14.0 | 0.00 | 0.00 | 0.00 | 32 | 1014.2 |
| 20260504224508 | 56 | 328 | 10.0 | 11.0 | 0.00 | 0.00 | 0.00 | 31 | 1014.3 |
| 20260504224005 | 55 | 16 | 7.0 | 8.0 | 0.00 | 0.00 | 0.00 | 32 | 1014.1 |
| 20260504223501 | 55 | 323 | 10.0 | 10.0 | 0.00 | 0.00 | 0.00 | 31 | 1014.1 |
| 20260504222957 | 55 | 336 | 9.0 | 10.0 | 0.00 | 0.00 | 0.00 | 32 | 1014.3 |
| 20260504222455 | 54 | 319 | 7.0 | 8.0 | 0.00 | 0.00 | 0.00 | 32 | 1014.0 |
| 20260504221952 | 55 | 321 | 9.0 | 10.0 | 0.00 | 0.00 | 0.00 | 32 | 1014.3 |
| 20260504221449 | 55 | 327 | 12.0 | 14.0 | 0.00 | 0.00 | 0.00 | 31 | 1014.1 |
| 20260504220946 | 56 | 324 | 7.0 | 8.0 | 0.00 | 0.00 | 0.00 | 30 | 1013.8 |
| 20260504220442 | 56 | 339 | 15.0 | 17.0 | 0.00 | 0.00 | 0.00 | 29 | 1014.0 |
| 20260504215939 | 57 | 326 | 7.0 | 9.0 | 0.00 | 0.00 | 0.00 | 29 | 1013.8 |
| 20260504215436 | 56 | 351 | 11.0 | 15.0 | 0.00 | 0.00 | 0.00 | 29 | 1013.8 |
| 20260504214933 | 56 | 341 | 13.0 | 16.0 | 0.00 | 0.00 | 0.00 | 28 | 1014.1 |
| 20260504214429 | 55 | 341 | 12.0 | 13.0 | 0.00 | 0.00 | 0.00 | 29 | 1014.0 |
| 20260504213926 | 56 | 354 | 13.0 | 16.0 | 0.00 | 0.00 | 0.00 | 28 | 1014.2 |
| 20260504213422 | 57 | 342 | 12.0 | 14.0 | 0.00 | 0.00 | 0.00 | 28 | 1014.1 |
| 20260504212920 | 56 | 312 | 11.0 | 14.0 | 0.00 | 0.00 | 0.00 | 28 | 1014.1 |
| 20260504212415 | 55 | 329 | 13.0 | 16.0 | 0.00 | 0.00 | 0.00 | 28 | 1013.8 |
| 20260504211913 | 55 | 308 | 6.0 | 7.0 | 0.00 | 0.00 | 0.00 | 30 | 1014.2 |
| 20260504211409 | 56 | 327 | 15.0 | 19.0 | 0.00 | 0.00 | 0.00 | 29 | 1014.0 |
| 20260504210906 | 55 | 353 | 11.0 | 14.0 | 0.00 | 0.00 | 0.00 | 29 | 1014.1 |
| 20260504210403 | 56 | 330 | 13.0 | 17.0 | 0.00 | 0.00 | 0.00 | 30 | 1014.2 |
| 20260504205900 | 56 | 324 | 13.0 | 14.0 | 0.00 | 0.00 | 0.00 | 30 | 1014.1 |
| 20260504205358 | 57 | 352 | 13.0 | 15.0 | 0.00 | 0.00 | 0.00 | 29 | 1014.0 |
| 20260504204856 | 57 | 347 | 17.0 | 21.0 | 0.00 | 0.00 | 0.00 | 29 | 1014.0 |
| 20260504204354 | 57 | 308 | 20.0 | 25.0 | 0.00 | 0.00 | 0.00 | 27 | 1014.1 |
| 20260504203854 | 57 | 312 | 7.0 | 9.0 | 0.00 | 0.00 | 0.00 | 29 | 1014.0 |
| 20260504203350 | 57 | 339 | 14.0 | 21.0 | 0.00 | 0.00 | 0.00 | 29 | 1014.0 |
| 20260504202846 | 57 | 300 | 14.0 | 17.0 | 0.00 | 0.00 | 0.00 | 30 | 1013.8 |
| 20260504202343 | 57 | 338 | 7.0 | 9.0 | 0.00 | 0.00 | 0.00 | 30 | 1014.1 |
| 20260504201839 | 57 | 336 | 13.0 | 15.0 | 0.00 | 0.00 | 0.00 | 29 | 1014.0 |
| 20260504201337 | 56 | 340 | 9.0 | 11.0 | 0.00 | 0.00 | 0.00 | 30 | 1014.1 |
| 20260504200834 | 57 | 344 | 11.0 | 14.0 | 0.00 | 0.00 | 0.00 | 30 | 1014.0 |
| 20260504200331 | 57 | 324 | 11.0 | 15.0 | 0.00 | 0.00 | 0.00 | 29 | 1013.8 |
| 20260504195827 | 57 | 311 | 7.0 | 9.0 | 0.00 | 0.00 | 0.00 | 29 | 1013.8 |
| 20260504195323 | 57 | 347 | 10.0 | 14.0 | 0.00 | 0.00 | 0.00 | 29 | 1014.0 |
| 20260504194820 | 57 | 330 | 11.0 | 17.0 | 0.00 | 0.00 | 0.00 | 27 | 1013.8 |
| 20260504194316 | 57 | 329 | 6.0 | 7.0 | 0.00 | 0.00 | 0.00 | 31 | 1013.8 |
| 20260504193812 | 57 | 337 | 13.0 | 15.0 | 0.00 | 0.00 | 0.00 | 31 | 1014.0 |
| 20260504193310 | 57 | 324 | 9.0 | 13.0 | 0.00 | 0.00 | 0.00 | 31 | 1014.0 |
| 20260504192808 | 57 | 334 | 10.0 | 11.0 | 0.00 | 0.00 | 0.00 | 31 | 1014.1 |
| 20260504192306 | 58 | 338 | 16.0 | 17.0 | 0.00 | 0.00 | 0.00 | 29 | 1014.1 |
| 20260504191804 | 58 | 324 | 7.0 | 8.0 | 0.00 | 0.00 | 0.00 | 30 | 1014.2 |
| 20260504191301 | 56 | 339 | 14.0 | 18.0 | 0.00 | 0.00 | 0.00 | 30 | 1014.0 |
| 20260504190757 | 56 | 344 | 11.0 | 14.0 | 0.00 | 0.00 | 0.00 | 30 | 1014.2 |
| 20260504190253 | 57 | 336 | 11.0 | 13.0 | 0.00 | 0.00 | 0.00 | 30 | 1014.3 |
| 20260504185749 | 56 | 351 | 12.0 | 14.0 | 0.00 | 0.00 | 0.00 | 31 | 1014.1 |
| 20260504185247 | 56 | 297 | 8.0 | 10.0 | 0.00 | 0.00 | 0.00 | 32 | 1014.3 |
| 20260504184743 | 57 | 315 | 11.0 | 15.0 | 0.00 | 0.00 | 0.00 | 32 | 1014.4 |
| 20260504184238 | 55 | 343 | 5.0 | 8.0 | 0.00 | 0.00 | 0.00 | 33 | 1014.4 |
| 20260504183734 | 55 | 326 | 8.0 | 10.0 | 0.00 | 0.00 | 0.00 | 33 | 1014.1 |
| 20260504183232 | 55 | 319 | 14.0 | 18.0 | 0.00 | 0.00 | 0.00 | 33 | 1014.4 |
| 20260504182730 | 56 | 336 | 14.0 | 17.0 | 0.00 | 0.00 | 0.00 | 33 | 1014.2 |
| 20260504182226 | 57 | 350 | 11.0 | 11.0 | 0.00 | 0.00 | 0.00 | 33 | 1014.4 |
| 20260504181724 | 55 | 6 | 6.0 | 9.0 | 0.00 | 0.00 | 0.00 | 35 | 1014.4 |
| 20260504181221 | 56 | 307 | 13.0 | 17.0 | 0.00 | 0.00 | 0.00 | 35 | 1014.4 |
| 20260504180720 | 56 | 309 | 12.0 | 15.0 | 0.00 | 0.00 | 0.00 | 35 | 1014.0 |
| 20260504180219 | 56 | 343 | 8.0 | 9.0 | 0.00 | 0.00 | 0.00 | 36 | 1014.1 |
| 20260504175716 | 56 | 321 | 10.0 | 13.0 | 0.00 | 0.00 | 0.00 | 35 | 1014.2 |
| 20260504175212 | 55 | 305 | 15.0 | 17.0 | 0.00 | 0.00 | 0.00 | 35 | 1014.1 |
| 20260504174711 | 55 | 319 | 9.0 | 10.0 | 0.00 | 0.00 | 0.00 | 37 | 1014.3 |
| 20260504174208 | 55 | 319 | 9.0 | 11.0 | 0.00 | 0.00 | 0.00 | 36 | 1014.2 |
| 20260504173704 | 56 | 310 | 9.0 | 11.0 | 0.00 | 0.00 | 0.00 | 34 | 1014.3 |
| 20260504173202 | 55 | 301 | 9.0 | 11.0 | 0.00 | 0.00 | 0.00 | 41 | 1014.3 |
| 20260504172658 | 54 | 282 | 11.0 | 14.0 | 0.00 | 0.00 | 0.00 | 42 | 1014.3 |
| 20260504172154 | 55 | 313 | 10.0 | 13.0 | 0.00 | 0.00 | 0.00 | 41 | 1014.4 |
| 20260504171651 | 56 | 291 | 7.0 | 8.0 | 0.00 | 0.00 | 0.00 | 40 | 1014.4 |
| 20260504171148 | 56 | 291 | 10.0 | 11.0 | 0.00 | 0.00 | 0.00 | 40 | 1014.2 |
| 20260504170644 | 55 | 321 | 12.0 | 15.0 | 0.00 | 0.00 | 0.00 | 40 | 1014.5 |
| 20260504170142 | 55 | 316 | 7.0 | 8.0 | 0.00 | 0.00 | 0.00 | 40 | 1014.3 |
| 20260504151028 | 50 | 283 | 6.0 | 9.0 | 0.00 | 0.00 | 0.00 | 51 | 1014.7 |
| 20260504150525 | 50 | 282 | 9.0 | 10.0 | 0.00 | 0.00 | 0.00 | 50 | 1014.6 |
| 20260504140956 | 48 | 267 | 3.0 | 3.0 | 0.00 | 0.00 | 0.00 | 59 | 1015.1 |
| 20260504140453 | 48 | 254 | 4.0 | 4.0 | 0.00 | 0.00 | 0.00 | 59 | 1014.9 |
| 20260504130417 | 46 | 277 | 2.0 | 2.0 | 0.00 | 0.00 | 0.00 | 62 | 1014.8 |